Ankeny, IA

10:51 PM CDT on May 24, 2017 (GMT -0500)
Ankeny Regional

Weather History for KIKV - March, 2014

Change the Weather History Date:

Sunday, March 30, 2014

  Actual Average (KDSM) Record (KDSM)
Temperature  
Mean Temperature 53 °F -  
Max Temperature 71 °F 55 °F 83 °F (1967)
Min Temperature 35 °F 34 °F 6 °F (1964)
Degree Days  
Heating Degree Days 12    
Growing Degree Days 3 (Base 50)    
Moisture  
Dew Point 31 °F    
Average Humidity 49    
Maximum Humidity 81    
Minimum Humidity 23    
Precipitation  
Precipitation 0.00 in - - ()
Sea Level Pressure  
Sea Level Pressure 29.94 in    
Wind  
Wind Speed 12 mph (South)    
Max Wind Speed 23 mph    
Max Gust Speed 34 mph    
Visibility 10 miles    
Events      
Averages and records for this station are not official NWS values.
T = Trace of Precipitation, MM = Missing Value Source: NWS Daily Summary

Daily Weather History Graph

Daily Weather History Graph

Search for Another Location

Airport or City:

Trip Planner

Search our weather history database for the weather conditions in past years. The results will help you decide how hot, cold, wet, or windy it might be!

Date:

Astronomy

Mar. 30, 2014 Rise Set
Actual Time 7:00 AM CDT 7:37 PM CDT
Civil Twilight 6:32 AM CDT 8:05 PM CDT
Nautical Twilight 5:59 AM CDT 8:38 PM CDT
Astronomical Twilight 5:25 AM CDT 9:12 PM CDT
Moon 6:46 AM CDT (3/30) 7:51 PM CDT (3/30)
Length of Visible Light 13h 32m
Length of Day
12h 37m
Waning Crescent, 0% of the Moon is Illuminated
Mar 30
Waning Crescent
Mar 30
New
Apr 7
First Quarter
Apr 15
Full
Apr 22
Last Quarter

Hourly Weather History & Observations

Time (CDT) Temp. Windchill Dew Point Humidity Pressure Visibility Wind Dir Wind Speed Gust Speed Precip Events Conditions
12:15 AM 37.4 °F 32.1 °F 28.4 °F 70% 30.15 in 10.0 mi SSE 6.9 mph - N/A   Clear
12:35 AM 37.4 °F 31.4 °F 28.4 °F 70% 30.14 in 10.0 mi SSE 8.1 mph - N/A   Scattered Clouds
12:55 AM 37.4 °F 30.8 °F 28.4 °F 70% 30.13 in 10.0 mi SSE 9.2 mph - N/A   Partly Cloudy
1:15 AM 39.2 °F 33.0 °F 30.2 °F 70% 30.12 in 10.0 mi SSE 9.2 mph - N/A   Clear
1:35 AM 39.2 °F 33.0 °F 30.2 °F 70% 30.11 in 10.0 mi SSE 9.2 mph - N/A   Clear
1:55 AM 39.2 °F 33.6 °F 30.2 °F 70% 30.11 in 10.0 mi SSE 8.1 mph - N/A   Clear
2:15 AM 39.2 °F 32.5 °F 30.2 °F 70% 30.10 in 10.0 mi SSE 10.4 mph - N/A   Clear
2:35 AM 37.4 °F 30.3 °F 30.2 °F 75% 30.09 in 10.0 mi SSE 10.4 mph - N/A   Clear
2:55 AM 37.4 °F 30.8 °F 30.2 °F 75% 30.08 in 10.0 mi SSE 9.2 mph - N/A   Clear
3:15 AM 37.4 °F 30.8 °F 30.2 °F 75% 30.08 in 10.0 mi SSE 9.2 mph - N/A   Mostly Cloudy
3:35 AM 37.4 °F 30.8 °F 30.2 °F 75% 30.07 in 10.0 mi SSE 9.2 mph - N/A   Overcast
3:55 AM 35.6 °F 29.2 °F 30.2 °F 81% 30.06 in 10.0 mi SSE 8.1 mph - N/A   Overcast
4:15 AM 35.6 °F 28.0 °F 30.2 °F 81% 30.05 in - SSE 10.4 mph - N/A   Mostly Cloudy
4:35 AM 37.4 °F 30.8 °F 30.2 °F 75% 30.06 in 10.0 mi South 9.2 mph - N/A   Partly Cloudy
4:55 AM 37.4 °F 30.3 °F 30.2 °F 75% 30.06 in 10.0 mi SSE 10.4 mph - N/A   Partly Cloudy
5:15 AM 37.4 °F 30.8 °F 30.2 °F 75% 30.05 in 10.0 mi SSE 9.2 mph - N/A   Scattered Clouds
5:35 AM 35.6 °F 27.5 °F 30.2 °F 81% 30.05 in 10.0 mi South 11.5 mph - N/A   Partly Cloudy
5:55 AM 37.4 °F 29.8 °F 30.2 °F 75% 30.05 in 10.0 mi South 11.5 mph - N/A   Clear
6:15 AM 35.6 °F 28.0 °F 30.2 °F 81% 30.05 in 10.0 mi SSE 10.4 mph - N/A   Clear
6:35 AM 35.6 °F 28.0 °F 30.2 °F 81% 30.05 in 10.0 mi SSE 10.4 mph - N/A   Clear
6:55 AM 35.6 °F 28.6 °F 30.2 °F 81% 30.05 in 10.0 mi SSE 9.2 mph - N/A   Clear
7:15 AM 37.4 °F 29.8 °F 30.2 °F 75% 30.05 in 10.0 mi SSE 11.5 mph - N/A   Clear
7:35 AM 37.4 °F 30.3 °F 30.2 °F 75% 30.04 in 10.0 mi SSE 10.4 mph 17.3 mph N/A   Clear
7:55 AM 39.2 °F 32.0 °F 32.0 °F 75% 30.04 in 9.0 mi SSE 11.5 mph - N/A   Clear
8:15 AM 39.2 °F 31.2 °F 32.0 °F 75% 30.03 in 9.0 mi SSE 13.8 mph - N/A   Clear
8:35 AM 41.0 °F 33.9 °F 32.0 °F 70% 30.03 in 9.0 mi SSE 12.7 mph - N/A   Clear
8:55 AM 42.8 °F 35.1 °F 33.8 °F 70% 30.02 in 10.0 mi South 16.1 mph - N/A   Clear
9:15 AM 44.6 °F 38.1 °F 33.8 °F 66% 30.02 in 10.0 mi South 13.8 mph - N/A   Clear
9:35 AM 46.4 °F 40.1 °F 32.0 °F 57% 30.01 in 10.0 mi South 15.0 mph - N/A   Clear
9:55 AM 48.2 °F - 32.0 °F 54% 30.01 in 10.0 mi South 13.8 mph 19.6 mph N/A   Clear
10:15 AM 53.6 °F - 32.0 °F 44% 30.01 in 9.0 mi South 16.1 mph - N/A   Clear
10:35 AM 55.4 °F - 32.0 °F 41% 30.01 in 10.0 mi South 17.3 mph - N/A   Clear
10:55 AM 57.2 °F - 30.2 °F 36% 30.00 in 10.0 mi South 16.1 mph 21.9 mph N/A   Clear
11:15 AM 59.0 °F - 32.0 °F 36% 29.99 in 10.0 mi South 18.4 mph 25.3 mph N/A   Clear
11:35 AM 62.6 °F - 30.2 °F 30% 29.98 in 9.0 mi South 16.1 mph 27.6 mph N/A   Clear
11:55 AM 62.6 °F - 32.0 °F 32% 29.96 in 9.0 mi South 19.6 mph 26.5 mph N/A   Clear
12:15 PM 64.4 °F - 32.0 °F 30% 29.95 in 9.0 mi South 19.6 mph 29.9 mph N/A   Clear
12:35 PM 66.2 °F - 32.0 °F 28% 29.94 in 9.0 mi SSW 20.7 mph 34.5 mph N/A   Clear
12:55 PM 66.2 °F - 32.0 °F 28% 29.93 in 10.0 mi South 21.9 mph 28.8 mph N/A   Clear
1:15 PM 66.2 °F - 33.8 °F 30% 29.92 in 9.0 mi South 17.3 mph 29.9 mph N/A   Clear
1:35 PM 68.0 °F - 33.8 °F 28% 29.91 in 10.0 mi SSW 18.4 mph 27.6 mph N/A   Clear
1:55 PM 69.8 °F - 32.0 °F 25% 29.90 in 10.0 mi South 17.3 mph 29.9 mph N/A   Clear
2:15 PM 69.8 °F - 33.8 °F 27% 29.89 in 10.0 mi South 18.4 mph - N/A   Clear
2:35 PM 69.8 °F - 33.8 °F 27% 29.87 in 10.0 mi South 20.7 mph - N/A   Clear
2:55 PM 68.0 °F - 30.2 °F 24% 29.86 in 10.0 mi SSW 20.7 mph 29.9 mph N/A   Clear
3:15 PM 69.8 °F - 30.2 °F 23% 29.85 in 10.0 mi South 21.9 mph 28.8 mph N/A   Clear
3:35 PM 71.6 °F - 32.0 °F 23% 29.84 in 10.0 mi South 20.7 mph 32.2 mph N/A   Clear
3:55 PM 69.8 °F - 30.2 °F 23% 29.84 in 10.0 mi SSW 13.8 mph 31.1 mph N/A   Clear
4:15 PM 69.8 °F - 30.2 °F 23% 29.83 in 10.0 mi South 18.4 mph 24.2 mph N/A   Clear
4:35 PM 69.8 °F - 32.0 °F 25% 29.82 in 10.0 mi South 20.7 mph 28.8 mph N/A   Clear
4:55 PM 69.8 °F - 32.0 °F 25% 29.82 in 10.0 mi South 23.0 mph 34.5 mph N/A   Clear
5:15 PM 69.8 °F - 32.0 °F 25% 29.80 in 10.0 mi South 21.9 mph - N/A   Clear
5:35 PM 69.8 °F - 32.0 °F 25% 29.81 in 10.0 mi South 18.4 mph 26.5 mph N/A   Clear
5:55 PM 68.0 °F - 32.0 °F 26% 29.81 in 10.0 mi South 16.1 mph 21.9 mph N/A   Clear
6:15 PM 68.0 °F - 32.0 °F 26% 29.81 in 10.0 mi South 12.7 mph 24.2 mph N/A   Clear
6:35 PM 66.2 °F - 32.0 °F 28% 29.80 in 10.0 mi SSE 15.0 mph - N/A   Clear
6:55 PM 66.2 °F - 32.0 °F 28% 29.80 in 10.0 mi South 15.0 mph 21.9 mph N/A   Clear
7:15 PM 64.4 °F - 32.0 °F 30% 29.79 in 10.0 mi SSE 16.1 mph - N/A   Clear
7:35 PM 62.6 °F - 32.0 °F 32% 29.80 in 10.0 mi SSE 11.5 mph 18.4 mph N/A   Clear
7:55 PM 60.8 °F - 32.0 °F 34% 29.80 in 10.0 mi SSE 11.5 mph - N/A   Clear
8:15 PM 60.8 °F - 32.0 °F 34% 29.80 in 10.0 mi SE 10.4 mph - N/A   Clear
8:35 PM 60.8 °F - 32.0 °F 34% 29.80 in 10.0 mi SSE 12.7 mph - N/A   Clear
8:55 PM 60.8 °F - 32.0 °F 34% 29.81 in 10.0 mi SSE 15.0 mph 20.7 mph N/A   Clear
9:15 PM 60.8 °F - 32.0 °F 34% 29.80 in 10.0 mi SSE 15.0 mph 20.7 mph N/A   Clear
9:35 PM 60.8 °F - 33.8 °F 36% 29.80 in 10.0 mi SSE 17.3 mph - N/A   Clear
9:55 PM 59.0 °F - 33.8 °F 39% 29.80 in 10.0 mi South 13.8 mph 20.7 mph N/A   Clear
10:15 PM 59.0 °F - 32.0 °F 36% 29.81 in 10.0 mi SSE 11.5 mph - N/A   Clear
10:35 PM 57.2 °F - 32.0 °F 38% 29.81 in 10.0 mi SSE 10.4 mph - N/A   Clear
10:55 PM 57.2 °F - 32.0 °F 38% 29.80 in 10.0 mi SE 10.4 mph - N/A   Clear
11:15 PM 57.2 °F - 32.0 °F 38% 29.80 in 10.0 mi SSE 11.5 mph - N/A   Clear
11:35 PM 57.2 °F - 32.0 °F 38% 29.80 in 10.0 mi SSE 11.5 mph - N/A   Clear
11:55 PM 57.2 °F - 32.0 °F 38% 29.79 in 10.0 mi SSE 15.0 mph - N/A   Clear